Regional Weather Roundup
Issued by NWS

Home | Current Version | Previous Version | Graphics & Text | Print | Product List | Glossary On
Versions: 1 2 3 4 5 6 7 8 9 10 11 12 13 14 15 16 17 18 19 20 21 22 23 24 25 26 27 28 29 30 31 32 33 34 35 36 37 38 39 40 41 42 43 44 45 46 47 48 49 50
000
ASUS45 KCYS 301010
RWRWY

WYOMING REGIONAL WEATHER ROUNDUP
NATIONAL WEATHER SERVICE CHEYENNE WY
400 AM MDT SAT MAY 30 2015

NOTE:  "FAIR" INDICATES FEW OR NO CLOUDS BELOW 12,000 FEET
WITH NO SIGNIFICANT WEATHER AND/OR OBSTRUCTIONS TO VISIBILITY.

WYZ001-301100-
YELLOWSTONE NATIONAL PARK

CITY           SKY/WX    TMP DP  RH WIND       PRES   REMARKS
LK YELLOWSTONE   N/A     33  32  96 CALM      30.30F
W YELLOWSTONE  NOT AVBL

$$
WYZ002>013-054>058-071-098>099-301100-
NORTHERN WYOMING

CITY           SKY/WX    TMP DP  RH WIND       PRES   REMARKS
JACKSON        FAIR      39  39 100 N6        30.25S WCI  35
CODY           FAIR      45  43  93 CALM      30.16S
GREYBULL       FAIR      52  46  80 SE3       30.14F
WORLAND        FAIR      50  44  80 SE12      30.14F
SHERIDAN       FAIR      40  37  89 CALM      30.14F
BUFFALO        FAIR      42  41  96 S6        30.16F
GILLETTE       FAIR      42  39  89 SE7       30.20F
HULETT         FAIR      36  32  87 CALM      30.25S
NEWCASTLE      CLOUDY    43  43 100 SE8       30.28S

$$
WYZ014>020-022>026-101>103-301100-
CENTRAL WYOMING

CITY           SKY/WX    TMP DP  RH WIND       PRES   REMARKS
BIG PINEY      FAIR      36  35  96 N6        30.30F WCI  31
PINEDALE       FAIR      36  36 100 CALM      30.31S
DUBOIS         FAIR      41  36  81 NW6       30.28S
LANDER         FAIR      47  42  83 NW6       30.21F
RIVERTON       FAIR      43  41  93 N5        30.22F
CASPER         FAIR      38  37  97 NE5       30.23F WCI  34
DOUGLAS        FAIR      39  37  92 SE5       30.26R

$$
WYZ021-027>030-104>119-301100-
SOUTHERN WYOMING

CITY           SKY/WX    TMP DP  RH WIND       PRES   REMARKS
EVANSTON       FAIR      48  38  68 SE6       30.26F
KEMMERER       FAIR      41  36  81 N10       30.28F
FORT BRIDGER   SUNNY     45  39  81 W7        30.30S
ROCK SPRINGS   FAIR      45  38  76 S8        30.27F
DIXON          FAIR      42  37  83 E7        30.32S
RAWLINS        FAIR      37  34  89 CALM      30.30S
SARATOGA       FAIR      36  34  93 CALM      30.31F
LARAMIE        MOCLDY    38  38 100 S12       30.31S FOG     WCI  30
CHEYENNE       CLOUDY    45  43  93 SW12      30.30F
TORRINGTON     CLOUDY    46  45  96 SE12      30.28R FOG
PINE BLUFFS    FOG       37  37 100 S6        30.31F VSB 3/4 WCI  33

$$



USA.gov is the U.S. government's official web portal to all federal, state and local government web resources and services.